Tracking 18852 objects as of 23-Nov-2017
HD Live streaming from Space Station
objects crossing your sky now

LEMUR 2 SOKOLSKY

Track LEMUR 2 SOKOLSKY now!
10-day predictions
LEMUR 2 SOKOLSKY is classified as:


NORAD ID: 41872
Int'l Code: 2016-062D
Perigee: 498.4 km
Apogee: 506.9 km
Inclination: 51.7 °
Period: 94.5 minutes
Semi major axis: 6873 km
RCS: Unknown
Launch date: October 17, 2016
Source: (USA)
Launch site: WALLOPS ISLAND (WLPIS)
aabbcc
Your satellite tracking list
Your tracking list is empty




NASA's NSSDC Master Catalog

Two Line Element Set (TLE):
1 41872U 16062D   17326.45746693  .00002690  00000-0  12533-3 0  9994
2 41872  51.6847  54.6278 0006212  85.4360 274.7322 15.23426955 55058
Source of the keplerian elements: AFSPC